"Pseudo-MPEC" for C2UW9V2

Created 2020 May 24 11:07:07 UT using Find_Orb

Click here for an explanation of pseudo-MPECs

 
 Astrometry: 
     C2UW9V2  C2020 05 18kxiT9*plmb7wIGoaV+xttjeI^@:eAE0?4eY,o)xk59o\/Vl:.@hRF51
     C2UW9V2  C2020 05 18,kAstrometryj_0G*@Ar_T$T]#q)8redacted;dxOs.ugp/HHTm(F51
     C2UW9V2  C2020 05 189#)CwclickJo]XtkQEC'wLT+HB!hered+#f`pHyMQw%Vlb4for@-F51
     C2UW9V2  C2020 05 23.34969 16 19 02.64 -03 38 32.7    ~5N9M 21.4 GVNEOCPG96
     C2UW9V2  C2020 05 23.35487 16 19 01.59 -03 39 01.9    ~5N9M 21.0 GVNEOCPG96
     C2UW9V2  C2020 05 23.36520 16 18 59.45 -03 40 00.2    ~5N9M 21.1 GVNEOCPG96
     C2UW9V2  C2020 05 23.41277 16 18 49.60 -03 44 29.8    ~5NAM 21.3 GVNEOCPV06
     C2UW9V2  C2020 05 23.41478 16 18 49.19 -03 44 41.2    ~5NAM 21.5 GVNEOCPV06
     C2UW9V2  C2020 05 23.41679 16 18 48.77 -03 44 52.7    ~5NAM 21.4 GVNEOCPV06
     C2UW9V2  C2020 05 24.28969 16 15 55.82 -05 08 46.2    ~5O7b 20.6 GVNEOCPI52
     C2UW9V2  C2020 05 24.29352 16 15 54.93 -05 09 09.8    ~5O7b 20.9 GVNEOCPI52
     C2UW9V2  C2020 05 24.29735 16 15 54.16 -05 09 33.0    ~5O7b 20.3 GVNEOCPI52
     C2UW9V2  C2020 05 24.30117 16 15 53.31 -05 09 54.6    ~5O7b 20.7 GVNEOCPI52
     C2UW9V2 !C2020 05 24*K$)I+u9eCexplanation[@agD''nOv[W!k$=YD$dJ(msgNn'9lb673
     C2UW9V2 !C2020 05 24Z-)X5dkS#xtX%yvO'CHoKpve8yJv19`71+:?bq=hFOmEKBIDOt;%673

Station data:
(673) Table Mountain Observatory, Wrightwood  (N34.381488 W117.682170)
   US/California.  Observer W. M. Owen Jr. 0.61-m f/16 reflector + CCD.
(F51) Pan-STARRS 1, Haleakala  (N20.707235 W156.255910)  US/Hawaii.
   Observers N. Primak, A. Schultz, S. Watters, J. Thiel, T. Goggia. Measurer
   PS1 Science Consortium. 1.8-m Ritchey-Chrétien + CCD.
(G96) Mt. Lemmon Survey  (N32.442754 W110.788720)  US/Arizona.  Observers T.
   A. Pruyne, B. M. Africano, E. J. Christensen, G. A. Farneth, D. C. Fuls,
   A. R. Gibbs, A. D. Grauer, H. Gröller, J. A. Johnson, R. A. Kowalski, S.
   M. Larson, G. J. Leonard, D. Rankin, R. L. Seaman, F. C. Shelly. 1.5-m
   reflector + 10K CCD.
(I52) Steward Observatory, Mt. Lemmon Station  (N32.442547 W110.788920)
   US/Arizona.  Observers T. A. Pruyne, B. M. Africano, E. J. Christensen, G.
   A. Farneth, D. C. Fuls, A. R. Gibbs, A. D. Grauer, H. Gröller, J. A.
   Johnson, R. A. Kowalski, S. M. Larson, G. J. Leonard, D. Rankin, R. L.
   Seaman, F. C. Shelly. 1.0-m reflector + CCD.
(V06) Catalina Sky Survey-Kuiper  (N32.416847 W110.732550)  US/Arizona.
   Observers T. A. Pruyne, B. M. Africano, E. J. Christensen, G. A. Farneth,
   D. C. Fuls, A. R. Gibbs, A. D. Grauer, H. Gröller, J. A. Johnson, R. A.
   Kowalski, S. M. Larson, G. J. Leonard, D. Rankin, R. L. Seaman, F. C.
   Shelly. 1.55-m reflector + CCD.

Orbital elements:  C2UW9V2
   Perihelion 2020 Jul 4.138430 +/- 0.447 TT =  3:19:20 (JD 2459034.638430)
Epoch 2020 May 24.0 TT = JDT 2458993.5   Earth MOID: 0.2334   AutoNEOCP
M 341.69169396 +/- 0.7              (J2000 ecliptic)
n   0.44504143 +/- 0.0135           Peri.  206.56790 +/- 0.37
a   1.69903535 +/- 0.0344           Node    68.62848 +/- 0.038
e   0.2800129 +/- 0.0121            Incl.   31.19181 +/- 0.55
P   2.21/808.90d           H 22.9   G  0.15   U  9.9  
q 1.22328345 +/- 0.00411    Q 2.17478725 +/- 0.0635
From 15 observations 2020 May 18-24; mean residual 0".33
Residuals in arcseconds: 
200518 F51  .11-  .21-    200523 G96  .20+  .18+    200524 I52  .66-  .08-    
200518 F51  .25-  .06+    200523 V06  .02-  .08-    200524 I52  .14+  .83-    
200518 F51  .32+  .17+    200523 V06  .04+  .09-    200524 I52  .29-  .03-    
200523 G96  .18-  .06-    200523 V06  .05-  .20-    200524 673  .15+  .33+    
200523 G96  .18+  .04+    200524 I52  .34+  1.1+    200524 673  .14-  .32-    

Ephemerides (geocentric):
Date (UTC) HH   RA              Dec         delta   r     elong  mag " sig PA
---- -- -- --  -------------   -----------  ------ ------ -----  --- ---- ---
2020 05 24 11  16 15 21.165   -05 24 57.95  .26219 1.2673 164.4 21.3 .382  32
2020 05 24 12  16 15 12.642   -05 29 03.71  .26202 1.2672 164.5 21.3 .387  33
2020 05 24 13  16 15 04.106   -05 33 09.83  .26186 1.2671 164.5 21.3 .392  33
2020 05 24 14  16 14 55.557   -05 37 16.31  .26169 1.2671 164.6 21.3 .397  34
2020 05 24 15  16 14 46.994   -05 41 23.15  .26152 1.2670 164.7 21.3 .403  35
2020 05 24 16  16 14 38.419   -05 45 30.34  .26136 1.2669 164.8 21.3 .409  36
2020 05 24 17  16 14 29.830   -05 49 37.89  .26119 1.2668 164.8 21.3 .416  36
2020 05 24 18  16 14 21.227   -05 53 45.80  .26103 1.2667 164.9 21.3 .423  37
2020 05 24 19  16 14 12.612   -05 57 54.05  .26087 1.2666 165.0 21.3 .430  38
2020 05 24 20  16 14 03.983   -06 02 02.66  .26070 1.2665 165.0 21.3 .438  38
2020 05 24 21  16 13 55.340   -06 06 11.63  .26054 1.2665 165.1 21.3 .446  39
2020 05 24 22  16 13 46.685   -06 10 20.94  .26038 1.2664 165.2 21.3 .455  40
2020 05 24 23  16 13 38.016   -06 14 30.60  .26022 1.2663 165.2 21.2 .464  40
2020 05 25 00  16 13 29.334   -06 18 40.61  .26006 1.2662 165.3 21.2 .474  41
2020 05 25 01  16 13 20.639   -06 22 50.97  .25990 1.2661 165.4 21.2 .484  41
2020 05 25 02  16 13 11.931   -06 27 01.68  .25974 1.2660 165.4 21.2 .494  42
2020 05 25 03  16 13 03.209   -06 31 12.73  .25958 1.2659 165.5 21.2 .505  43
2020 05 25 04  16 12 54.474   -06 35 24.13  .25943 1.2659 165.6 21.2 .516  43
2020 05 25 05  16 12 45.726   -06 39 35.87  .25927 1.2658 165.6 21.2 .528  44
2020 05 25 06  16 12 36.965   -06 43 47.95  .25911 1.2657 165.7 21.2 .541  44
2020 05 25 07  16 12 28.190   -06 48 00.38  .25896 1.2656 165.8 21.2 .553  45
2020 05 25 08  16 12 19.403   -06 52 13.15  .25880 1.2655 165.8 21.2 .567  45
2020 05 25 09  16 12 10.602   -06 56 26.25  .25865 1.2654 165.9 21.2 .581  46
2020 05 25 10  16 12 01.788   -07 00 39.70  .25850 1.2653 166.0 21.2 .595  46
2020 05 25 11  16 11 52.961   -07 04 53.48  .25834 1.2653 166.0 21.2 .610  46
2020 05 25 12  16 11 44.120   -07 09 07.61  .25819 1.2652 166.1 21.2 .625  47
2020 05 25 13  16 11 35.267   -07 13 22.06  .25804 1.2651 166.2 21.2 .641  47
2020 05 25 14  16 11 26.400   -07 17 36.85  .25789 1.2650 166.2 21.2 .657  48
2020 05 25 15  16 11 17.520   -07 21 51.98  .25774 1.2649 166.3 21.2 .674  48
2020 05 25 16  16 11 08.627   -07 26 07.44  .25759 1.2648 166.4 21.2 .691  48
2020 05 25 17  16 10 59.721   -07 30 23.23  .25744 1.2648 166.4 21.2 .709  49
2020 05 25 18  16 10 50.802   -07 34 39.35  .25729 1.2647 166.5 21.2 .728  49
2020 05 25 19  16 10 41.869   -07 38 55.80  .25714 1.2646 166.6 21.2 .746  49
2020 05 25 20  16 10 32.924   -07 43 12.57  .25700 1.2645 166.6 21.2 .766  49
2020 05 25 21  16 10 23.965   -07 47 29.68  .25685 1.2644 166.7 21.2 .786  50
2020 05 25 22  16 10 14.994   -07 51 47.11  .25671 1.2643 166.8 21.2 .807  50
2020 05 25 23  16 10 06.009   -07 56 04.86  .25656 1.2642 166.8 21.2 .828  50
2020 05 26 00  16 09 57.011   -08 00 22.94  .25642 1.2642 166.9 21.2 .849  50
2020 05 26 01  16 09 48.000   -08 04 41.34  .25627 1.2641 166.9 21.2 .872  51
2020 05 26 02  16 09 38.976   -08 09 00.06  .25613 1.2640 167.0 21.2 .894  51
2020 05 26 03  16 09 29.940   -08 13 19.10  .25599 1.2639 167.1 21.2 .918  51
2020 05 26 04  16 09 20.890   -08 17 38.45  .25585 1.2638 167.1 21.1 .942  51
2020 05 26 05  16 09 11.827   -08 21 58.13  .25571 1.2637 167.2 21.1 .966  51
2020 05 26 06  16 09 02.751   -08 26 18.12  .25557 1.2637 167.2 21.1 0.99  51
2020 05 26 07  16 08 53.662   -08 30 38.43  .25543 1.2636 167.3 21.1 1.02  52
2020 05 26 08  16 08 44.560   -08 34 59.05  .25529 1.2635 167.4 21.1 1.04  52
2020 05 26 09  16 08 35.444   -08 39 19.98  .25515 1.2634 167.4 21.1 1.07  52
2020 05 26 10  16 08 26.317   -08 43 41.23  .25502 1.2633 167.5 21.1 1.10  52